STARLINK-35663, 66491

Orbit data source: Space-Track

STARLINK-35663, 66491 is a payload satellite owned by SpaceX/Seattle (US) in LEO that was launched on Sat, 15 Nov 2025 UTC via an FALCON 9 launch vehicle from the Air Force Eastern Test Range (AFETR). Payload-class satellites include a variety of spacecraft equipped with specific instruments for various scientific and technological missions. These include communications satellites like Starlink; space stations such as the ISS; scientific satellites like the Hubble; Earth observation satellites from companies like Planet Labs, Umbra, and HawkEye 360; GPS; miniature CubeSats for education and research; and military/defense satellites.

Loading next visibility...
Identifier
66491, 2025-263G
Orbit
LEO
Country
Flag of USUS
Related business
Manufacturer
SpaceX/Seattle
Mission
Operational Commercial Communications
Bus & Motor
STARLINK V2MO, Unknown motor
Mass
575 kg wet, ~530 kg dry
Launch date (UTC)
2025-11-15 (7 months ago)
Launch vehicle
FALCON 9
Launch site
Air Force Eastern Test Range (AFETR)
Object type
Payload
Rocket body
Debris
Shape & HBR
Box + 2 Pan, 17.7 m
Radar Cross Section
36.964 m², Large (>1 m²)

Expand to show TLE details & history
Last TLE update: 11 hours ago

TLE from 11 hours ago
0 STARLINK-35663
1 66491U 25263G   26171.38542598  .00008981  00000-0  33537-3 0  9995
2 66491  43.0006 130.8287 0001040 268.6290  91.4442 15.27590720 34603
Epoch: 2026-06-20T09:15Z
TLE epoch observation values (Epoch: 2026-06-20T09:15:00.804Z)
Latitude
-0.00006°
Longitude
83.47448°
Altitude
482.811 km
Speed
7.626 km/s
True Right ascension
08h 43m 18s
True Declination
0° 00' 00"
Sunlit
Object was in daylight at epoch
Visualization orbit readout
Latitude
Unknown
Longitude
Unknown
Altitude
Unknown
Speed
Unknown
Apparent Right ascension
Unknown
Apparent Declination
Unknown
Sunlit
N/A
Visualization observer readout
Local Sidereal Time
07:16:12
Azimuth
Unknown
Elevation
Unknown
Doppler factor
Unknown
Orbital elements
Apogee altitude
485.676 km
Perigee altitude
484.248 km
Semi-major axis
6,863.099 km
Eccentricity
0.0001
Inclination
43.0006°
RAAN
130.8287°
Arg. of periapsis
268.629°
True anomaly
91.45611°
Mean anomaly
91.4442°
Eccentric anomaly
91.45016°
Mean motion
3.81736 °/min
Orbital period
94.31 mins
BSTAR
0.00033537
Loading maneuver chart data...
Computing Atmospheric mass density...
Loading historical data...
Loading historical data...
Loading historical data...
Loading historical data...
Loading historical data...
Loading historical data...
Loading historical data...

Documentation

Showing up to 5 results
|